Weather History for Sheridan, WY

Change the Weather History Date:

Friday, December 28, 2012

  Actual Average Record
Temperature  
Mean Temperature 18 °F 22 °F  
Max Temperature 31 °F 35 °F 60 °F (1965)
Min Temperature 4 °F 10 °F -22 °F (1990)
Degree Days  
Heating Degree Days 47 43  
Month to date heating degree days 1117 1181  
Since 1 July heating degree days 2801 3059  
Cooling Degree Days 0 0  
Month to date cooling degree days 0 0  
Year to date cooling degree days 664 419  
Moisture  
Dew Point 11 °F    
Average Humidity 73    
Maximum Humidity 87    
Minimum Humidity 58    
Precipitation  
Precipitation T in 0.02 in 0.22 in (1955)
Month to date precipitation 0.50 0.51  
Year to date precipitation 9.53 14.11  
Sea Level Pressure  
Sea Level Pressure 30.10 in    
Wind  
Wind Speed 4 mph (WNW)    
Max Wind Speed 17 mph    
Max Gust Speed 20 mph    
Visibility 10 miles    
Events      
T = Trace of Precipitation, MM = Missing Value Source: NWS Daily Summary

Daily Weather History Graph

Daily Weather History Graph

Search for Another Location

Airport:

Trip Planner

Search our weather history database for the weather conditions in past years. The results will help you decide how hot, cold, wet, or windy it might be!

Date:

Astronomy

Dec. 28, 2012 Rise Set
Actual Time 7:44 AM MST 4:34 PM MST
Civil Twilight 7:11 AM MST 5:08 PM MST
Nautical Twilight 6:34 AM MST 5:45 PM MST
Astronomical Twilight 5:58 AM MST 6:20 PM MST
Moon 5:16 PM MST (12/28) 7:38 AM MST (12/28)
Length of Visible Light 9h 57m
Length of Day
8h 49m
Full, 100% of the Moon is Illuminated
Dec 28
Full
Jan 4
Last Quarter
Jan 11
New
Jan 18
First Quarter
Jan 26
Full

Hourly Weather History & Observations

Time (MST) Temp. Windchill Dew Point Humidity Pressure Visibility Wind Dir Wind Speed Gust Speed Precip Events Conditions
12:53 AM 16.0 °F - 9.0 °F 74% 30.05 in 10.0 mi Calm Calm - N/A   Overcast
1:53 AM 12.9 °F - 7.0 °F 77% 30.06 in 10.0 mi Calm Calm - N/A   Scattered Clouds
2:53 AM 15.1 °F - 9.0 °F 77% 30.07 in 10.0 mi Calm Calm - N/A   Overcast
3:53 AM 17.6 °F 12.3 °F 10.4 °F 73% 29.89 in 10.0 mi WSW 3.5 mph - N/A   Overcast
4:53 AM 19.9 °F 12.1 °F 12.9 °F 74% 30.05 in 10.0 mi West 5.8 mph - N/A   Overcast
5:53 AM 19.9 °F - 15.1 °F 81% 30.06 in 10.0 mi Calm Calm - N/A   Overcast
6:53 AM 21.9 °F 15.7 °F 16.0 °F 78% 30.07 in 10.0 mi WNW 4.6 mph - N/A   Overcast
7:53 AM 23.0 °F - 16.0 °F 74% 30.09 in 10.0 mi Calm Calm - N/A   Overcast
8:53 AM 23.0 °F 18.4 °F 15.8 °F 74% 29.93 in 10.0 mi WNW 3.5 mph - N/A   Overcast
9:53 AM 27.0 °F 20.5 °F 19.0 °F 72% 30.14 in 10.0 mi WSW 5.8 mph - N/A   Overcast
10:53 AM 28.0 °F 19.3 °F 19.0 °F 69% 30.14 in 9.0 mi NNW 9.2 mph - 0.00 in   Overcast
11:53 AM 28.9 °F 21.9 °F 19.9 °F 69% 30.11 in 10.0 mi NNW 6.9 mph - N/A   Overcast
12:53 PM 30.0 °F 18.7 °F 18.0 °F 61% 30.09 in 10.0 mi NNW 16.1 mph - N/A   Overcast
1:53 PM 28.9 °F 21.1 °F 17.1 °F 61% 30.10 in 10.0 mi NNW 8.1 mph - N/A   Overcast
2:53 PM 28.0 °F 17.5 °F 16.0 °F 61% 30.11 in 10.0 mi North 12.7 mph - N/A   Mostly Cloudy
3:53 PM 25.0 °F - 14.0 °F 63% 30.13 in 10.0 mi Calm Calm - N/A   Partly Cloudy
4:53 PM 24.8 °F 16.9 °F 12.2 °F 59% 29.99 in 10.0 mi WSW 6.9 mph - N/A   Overcast
5:53 PM 18.0 °F 8.7 °F 9.0 °F 68% 30.16 in 10.0 mi West 6.9 mph - N/A   Clear
6:53 PM 10.9 °F - 5.0 °F 77% 30.19 in 10.0 mi Calm Calm - N/A   Clear
7:53 PM 5.0 °F -4.1 °F 1.0 °F 84% 30.20 in 10.0 mi South 4.6 mph - N/A   Clear
8:53 PM 9.0 °F - 3.9 °F 80% 30.19 in 10.0 mi Calm Calm - N/A   Clear
9:53 PM 12.0 °F 4.1 °F 3.9 °F 70% 30.17 in 10.0 mi SSW 4.6 mph - N/A   Clear
10:53 PM 8.1 °F - 1.9 °F 76% 30.19 in 10.0 mi Calm Calm - N/A   Clear
11:53 PM 6.1 °F - -0.9 °F 73% 30.19 in 10.0 mi Calm Calm - N/A   Clear